This is the latest recevied weather packets stored in our database for station/object KC1OEK-13. If no packets are shown the sender has not sent any weather packets the latest 10 day(s).
| Time | Temp. | Humidity | Pressure | Rain* | Wind** | Luminosity | Snow |
|---|---|---|---|---|---|---|---|
| 1778099429 | 15° C | 99% | 1008.4 hPa | 1.27 mm | - | 84 W/m² | - |
| 1778099126 | 15° C | 99% | 1008.6 hPa | 1.27 mm | - | 67 W/m² | - |
| 1778098822 | 15° C | 99% | 1008.5 hPa | 0 mm | - | 49 W/m² | - |
| 1778098521 | 15° C | 99% | 1008.7 hPa | 1.78 mm | - | 58 W/m² | - |
| 1778098216 | 15° C | 99% | 1008.5 hPa | 1.78 mm | - | 152 W/m² | - |
| 1778097913 | 15° C | 98% | 1008.5 hPa | 1.27 mm | - | 134 W/m² | - |
| 1778097610 | 15° C | 98% | 1008.7 hPa | 3.05 mm | - | 87 W/m² | - |
| 1778097307 | 15° C | 98% | 1008.6 hPa | 3.05 mm | - | 99 W/m² | - |
| 1778097003 | 15° C | 98% | 1008.7 hPa | 3.05 mm | - | 123 W/m² | - |
| 1778096701 | 15° C | 98% | 1008.8 hPa | 3.05 mm | - | 108 W/m² | - |
| 1778096397 | 15° C | 97% | 1008.9 hPa | 1.27 mm | - | 96 W/m² | - |
| 1778096094 | 15° C | 97% | 1008.8 hPa | 1.78 mm | - | 176 W/m² | - |
| 1778095791 | 15° C | 97% | 1009.1 hPa | 1.78 mm | - | 127 W/m² | - |
| 1778095488 | 15° C | 97% | 1009 hPa | 0 mm | - | 108 W/m² | - |
| 1778095184 | 15° C | 97% | 1009 hPa | 0 mm | - | 133 W/m² | - |
| 1778094881 | 15° C | 97% | 1009 hPa | 1.78 mm | - | 139 W/m² | - |
| 1778094577 | 15° C | 97% | 1009.1 hPa | 0 mm | - | 134 W/m² | - |
| 1778094274 | 15° C | 97% | 1009.1 hPa | 1.27 mm | - | 102 W/m² | - |
| 1778093971 | 15° C | 97% | 1009.1 hPa | 0 mm | - | 111 W/m² | - |
| 1778093669 | 15° C | 96% | 1009.3 hPa | 0 mm | - | 84 W/m² | - |
| 1778093365 | 15° C | 96% | 1009.3 hPa | 0 mm | - | 125 W/m² | - |
| 1778093062 | 15° C | 97% | 1009.3 hPa | 0 mm | - | 150 W/m² | - |
| 1778092760 | 15° C | 97% | 1009.4 hPa | 0 mm | - | 130 W/m² | - |
| 1778092455 | 15° C | 96% | 1009.4 hPa | 0 mm | - | 105 W/m² | - |
| 1778092153 | 15° C | 96% | 1009.7 hPa | 0 mm | - | 144 W/m² | - |
* Rain latest hour (hover to see other rain measurements)
** Current wind speed in m/s (hover to see current wind gust speed)